TimePDT,TemperatureF,Dew PointF,Humidity,Sea Level PressureIn,VisibilityMPH,Wind Direction,Wind SpeedMPH,Gust SpeedMPH,PrecipitationIn,Events,Conditions,WindDirDegrees,DateUTC
12:58 AM,36.5,33.6,89,30.08,10.0,WNW,8.1,-,N/A,,Clear,300,2013-10-03 07:58:00
1:58 AM,34.7,32.4,91,30.09,10.0,NW,8.1,-,N/A,,Clear,310,2013-10-03 08:58:00
2:58 AM,34.9,32.5,91,30.11,10.0,NW,5.8,-,N/A,,Mostly Cloudy,310,2013-10-03 09:58:00
3:58 AM,33.6,31.1,90,30.13,10.0,NW,8.1,-,N/A,,Clear,320,2013-10-03 10:58:00
4:58 AM,33.1,31.3,93,30.15,10.0,WSW,3.5,-,N/A,,Clear,250,2013-10-03 11:58:00
5:58 AM,32.5,30.7,93,30.18,10.0,NW,5.8,-,N/A,,Clear,310,2013-10-03 12:58:00
6:58 AM,31.6,30.2,94,30.19,10.0,NNW,4.6,-,N/A,,Clear,330,2013-10-03 13:58:00
7:58 AM,36.1,33.6,91,30.23,10.0,NNW,8.1,-,N/A,,Clear,330,2013-10-03 14:58:00
8:58 AM,42.1,36.0,79,30.25,10.0,NNW,6.9,-,N/A,,Clear,330,2013-10-03 15:58:00
9:58 AM,45.9,36.1,69,30.26,10.0,North,10.4,-,N/A,,Clear,350,2013-10-03 16:58:00
10:58 AM,49.8,34.0,55,30.27,10.0,North,9.2,-,N/A,,Clear,360,2013-10-03 17:58:00
11:58 AM,51.6,34.0,51,30.29,10.0,NNE,8.1,-,N/A,,Clear,20,2013-10-03 18:58:00
12:58 PM,54.3,32.4,43,30.29,10.0,North,8.1,-,N/A,,Clear,360,2013-10-03 19:58:00
1:58 PM,55.8,33.3,43,30.29,10.0,Variable,5.8,-,N/A,,Clear,0,2013-10-03 20:58:00
2:58 PM,56.8,29.8,36,30.30,10.0,NNW,6.9,-,N/A,,Clear,330,2013-10-03 21:58:00
3:58 PM,57.0,30.2,36,30.31,10.0,North,5.8,-,N/A,,Clear,350,2013-10-03 22:58:00
4:58 PM,56.7,30.4,37,30.32,10.0,WNW,5.8,-,N/A,,Partly Cloudy,300,2013-10-03 23:58:00
5:58 PM,55.4,32.4,42,30.33,10.0,North,4.6,-,N/A,,Overcast,360,2013-10-04 00:58:00
6:58 PM,52.0,32.4,47,30.36,10.0,NW,3.5,-,N/A,,Overcast,320,2013-10-04 01:58:00
7:58 PM,48.4,34.2,58,30.38,10.0,North,4.6,-,N/A,,Mostly Cloudy,360,2013-10-04 02:58:00
9:58 PM,46.2,33.8,62,30.40,10.0,NE,4.6,-,N/A,,Clear,50,2013-10-04 04:58:00
10:58 PM,43.7,32.7,65,30.41,10.0,NE,6.9,-,N/A,,Clear,40,2013-10-04 05:58:00
11:58 PM,41.5,32.9,71,30.43,10.0,NE,4.6,-,N/A,,Clear,40,2013-10-04 06:58:00